Current weather by "City, St" or "zip code"  
 

Current Conditions: Santa Barbara, Santa Barbara Municipal Airport, CA

Fair


74.0 F

Last Updated on Oct 31 2020, 12:53 pm PDT
Humidity: 48%
Wind Speed: SW 8.1 mph
Barometer 30.01 in
Dewpoint: 53.1 F
Visibility: 10.00 mi
Precip: --
Heat Index: NA
Wind Chill: NA
Current conditions at:

Santa Barbara, Santa Barbara Municipal Airport, CA (KSBA)

Lat: 34.42611 Lon: 119.84361

Local Radar Image active severe weather and emergency alerts image image weather storm and storm spotter reports image weather observation monitoring service image
Local
Radar
Active
Alerts
Storm Reports Obs
Monitoring

Sign-up For Email & Text Message Weather Alert Notification Services



Advertise Here

Observation History for Santa Barbara, Santa Barbara Municipal Airport, CA


Time Wind
(mph)
Vis
(mi)
Weather Precip (in) Temperature (F) Relative
Humidity
Wind
Chill
(F)
Heat
Index
(F)
Pressure
Air Dwpt altimeter
(in)
sea level
(mb)
Rmks
12:53 pm PDT SW 8.1 10.00 Fair -- 74.0 53.1 48% NA NA 30.01 1016.3
11:53 am PDT S 5.8 10.00 Fair -- 71.0 52.0 51% NA NA 30.03 1016.8
10:53 am PDT SW 3.5 10.00 Fair -- 70.0 57.0 64% NA NA 30.02 1016.6
9:53 am PDT SE 4.6 10.00 Fair -- 61.0 55.9 84% 61 NA 30.03 1017.0
8:53 am PDT N 0.0 10.00 Fair -- 57.0 48.0 72% NA NA 30.03 1016.8
7:53 am PDT N 0.0 7.00 A Few Clouds -- 49.0 46.0 90% NA NA 30.01 1016.2
6:53 am PDT N 0.0 2.00 Mostly Cloudy with Haze -- 49.0 44.1 83% NA NA 30.00 1015.8
5:53 am PDT N 0.0 9.00 Partly Cloudy -- 50.0 46.9 89% NA NA 29.99 1015.6
4:53 am PDT N 0.0 10.00 Fair -- 47.0 43.0 86% NA NA 29.98 1015.0
3:53 am PDT N 0.0 10.00 Fair -- 49.0 45.0 86% NA NA 29.98 1015.1
2:53 am PDT N 0.0 10.00 Fair -- 49.0 44.1 83% NA NA 29.97 1014.8
1:53 am PDT W 3.5 10.00 Fair -- 48.0 45.0 89% NA NA 29.97 1014.8
12:53 am PDT N 0.0 9.00 Fair -- 52.0 48.9 89% NA NA 29.96 1014.5
11:53 pm PDT N 0.0 9.00 Fair -- 54.0 50.0 87% NA NA 29.97 1014.8
10:53 pm PDT NE 3.5 9.00 Fair -- 56.0 51.1 84% NA NA 29.98 1015.1
9:53 pm PDT E 4.6 9.00 Fair -- 56.0 52.0 87% 55 NA 29.97 1014.8
8:53 pm PDT NE 4.6 8.00 Fair -- 58.0 55.0 90% 58 NA 29.96 1014.4
7:53 pm PDT NE 3.5 7.00 Fair -- 61.0 57.9 90% NA NA 29.95 1014.2
6:53 pm PDT SE 4.6 7.00 Fair -- 62.0 57.9 86% 62 NA 29.93 1013.6
5:53 pm PDT SE 5.8 10.00 Fair -- 64.0 59.0 84% NA NA 29.92 1013.2
4:53 pm PDT N 0.0 10.00 Fair -- 72.0 51.1 48% NA NA 29.92 1013.3
3:53 pm PDT W 5.8 10.00 Fair -- 72.0 48.9 44% NA NA 29.93 1013.4
2:53 pm PDT W 8.1 10.00 Fair -- 72.0 54.0 53% NA NA 29.94 1013.7
1:53 pm PDT 4.6 10.00 Partly Cloudy -- 72.0 54.0 53% NA NA 29.95 1014.3

Regional Weather Observation


Santa Barbara, Santa Barbara Municipal Airport, CA (KSBA)

Fair
74.0 F

Lompoc, Lompoc Airport, CA (KLPC)

Fair
76.0 F

Santa Maria Public Airport/Capt G Allan Hancock Field, CA (KSMX)

Fair
83.0 F

Lompoc, Vandenberg Air Force Base, CA (KVBG)

Fair
73.0 F

Oxnard, Oxnard Airport, CA (KOXR)

Fair
69.0 F

Camarillo, Camarillo Airport, CA (KCMA)

Fair
75.0 F